Flag for U.S.A. Weather past 2 weeks in Kilgore, Texas, U.S.A.

Now
77 °F

Broken clouds.


Feels Like: 79 °F
Forecast: 63 / 77 °F
Wind: No wind

Location: Gregg County Airport

Current Time: Apr 18, 2015 at 4:15:59 PM

Latest Report: Apr 18, 2015 at 2:53 PM


Visibility: 10 mi

Pressure: 29.80 "Hg

Humidity: 66%

Dew point: 65 °F

Location of KilgoreLocation

Historic Weather in Kilgore — Graph

°F

Kilgore temperature yesterday

Maximum temperature yesterday: 82 °F (at 3:53 PM)
Minimum temperature yesterday: 61 °F (at 2:53 AM)
Average temperature yesterday: 70 °F

Past Weeks' High & Low Weather Summary

 TemperatureHumidityPressure
High86 °F (Apr 7, 4:53 PM)97% (Apr 6, 4:53 AM)30.37 "Hg (Apr 6, 4:53 AM)
Low47 °F (Apr 11, 5:53 AM)28% (Apr 4, 4:53 PM)29.80 "Hg (Apr 18, 2:53 PM)
Average67 °F76%29.99 "Hg
* Reported Apr 3 2:53 PM — Apr 18 2:53 PM, Kilgore, Weather by CustomWeather, © 2015

Note: Actual official high and low records may vary slightly from our data, if they occured in-between our weather recording intervals... More about our weather records

Advertising

Kilgore weather history for previous 24 hours

 ConditionsComfort  
Time TempWeatherWind HumidityBarometerVisibility
2:53 PM
Sat, Apr 18
77 °FBroken clouds.No wind66%29.80 "Hg10 mi
1:53 PM78 °FPartly sunny.5 mph69%29.81 "Hg10 mi
12:53 PM74 °FMostly cloudy.No wind74%29.84 "Hg10 mi
11:53 AM73 °FLow clouds.5 mph79%29.87 "Hg10 mi
10:53 AM72 °FLow clouds.6 mph84%29.88 "Hg10 mi
9:53 AM69 °FLight rain. Fog.5 mph90%29.88 "Hg3 mi
8:53 AM68 °FFog.No wind93%29.88 "Hg2 mi
7:53 AM67 °FRain. Fog.3 mph93%29.87 "Hg2 mi
7:03 AM67 °FLight rain. Fog.3 mph93%29.86 "Hg6 mi
6:53 AM67 °FHeavy rain. Fog.No wind93%29.83 "Hg4 mi
6:02 AM68 °FLight rain. Mostly cloudy.No wind93%29.86 "Hg10 mi
5:53 AM68 °FLight rain. Mostly cloudy.5 mph93%29.83 "Hg10 mi
4:53 AM69 °FMostly cloudy.5 mph93%29.84 "Hg8 mi
3:53 AM69 °FLight rain. Fog.5 mph93%29.86 "Hg5 mi
2:53 AM69 °FLight rain. Overcast.No wind93%29.89 "Hg8 mi
1:53 AM69 °FLight rain. Overcast.3 mph93%29.90 "Hg7 mi
12:53 AM70 °FLight rain. Overcast.No wind90%29.91 "Hg10 mi
11:53 PM
Fri, Apr 17
71 °FPassing clouds.3 mph84%29.91 "Hg10 mi
10:53 PM70 °FPassing clouds.6 mph87%29.92 "Hg10 mi
9:53 PM72 °FClear.3 mph78%29.92 "Hg10 mi
8:53 PM71 °FClear.5 mph84%29.91 "Hg10 mi
7:53 PM72 °FSunny.3 mph81%29.91 "Hg10 mi
6:53 PM75 °FSunny.7 mph71%29.89 "Hg10 mi
5:53 PM78 °FSunny.6 mph62%29.90 "Hg10 mi
4:53 PM80 °FScattered clouds.8 mph58%29.90 "Hg10 mi
Weather by CustomWeather, © 2015

See weather overviewHow to use our weather pages